Home   Weather   Basse-Terre   Past weeks

Flag for Guadeloupe Past Weather in Basse-Terre, Guadeloupe — Yesterday and Last 2 Weeks

Now
77 °F

Overcast.


Feels Like: 79 °F
Forecast: 72 / 79 °F
Wind: 7 mph from East

Location: Le Raizet - Guadeloupe

Current Time: Jan 18, 2017 at 10:17:21 am

Latest Report: Jan 18, 2017 at 9:30 am


Visibility: N/A

Pressure: 30.04 "Hg

Humidity: 69%

Dew Point: 66 °F

Location of Basse-TerreLocation

Past Weather in Basse-Terre — Graph

°F

Basse-Terre Temperature Yesterday

Maximum temperature yesterday: 82 °F (at 11:00 am)
Minimum temperature yesterday: 70 °F (at 4:00 am)
Average temperature yesterday: 75 °F

High & Low Weather Summary for the Past Weeks

 TemperatureHumidityPressure
High84 °F (Jan 3, 1:00 pm)100% (Jan 6, 7:00 am)30.09 "Hg (Jan 6, 7:00 am)
Low66 °F (Jan 12, 11:00 pm)40% (Jan 3, 1:00 pm)29.89 "Hg (Jan 10, 2:00 pm)
Average76 °F77%29.98 "Hg
* Reported Jan 3 9:00 am — Jan 18 9:00 am, Basse-Terre, Weather by CustomWeather, © 2017

Note: Actual official high and low records may vary slightly from our data, if they occured in-between our weather recording intervals... More about our weather records

Advertising

Basse-Terre Weather History for the Previous 24 Hours

Scroll right to see more
 ConditionsComfort  
Time TempWeatherWind HumidityBarometerVisibility
9:00 am
Wed, Jan 18
75 °FMostly cloudy.10 mph78%30.04 "HgN/A
8:30 am75 °FPassing clouds.10 mph78%30.04 "HgN/A
8:00 am72 °FSunny.No wind94%30.01 "Hg10 mi
7:30 am70 °FBroken clouds.1 mph94%30.01 "HgN/A
7:00 am68 °FPassing clouds.1 mph100%30.01 "HgN/A
6:30 am68 °FPassing clouds.2 mph94%30.01 "HgN/A
6:00 am68 °FPassing clouds.3 mph94%29.98 "HgN/A
5:30 am68 °FLight rain. Partly cloudy.5 mph100%29.98 "HgN/A
5:00 am68 °FPassing clouds.1 mph94%29.98 "HgN/A
4:30 am68 °FClear.1 mph94%29.98 "Hg10 mi
4:00 am70 °FPassing clouds.2 mph94%29.98 "HgN/A
3:30 am70 °FPartly cloudy.1 mph94%29.98 "HgN/A
3:00 am70 °FPartly cloudy.2 mph94%29.98 "HgN/A
2:30 am68 °FPartly cloudy.2 mph94%29.98 "HgN/A
2:00 am68 °FPassing clouds.3 mph94%30.01 "HgN/A
1:30 am68 °FClear.3 mph94%30.01 "Hg10 mi
1:00 am70 °FPassing clouds.1 mph88%30.01 "HgN/A
12:30 am70 °FPartly cloudy.2 mph88%30.01 "HgN/A
12:00 am70 °FPassing clouds.2 mph88%30.01 "HgN/A
11:30 pm
Tue, Jan 17
72 °FClear.1 mph83%30.01 "Hg10 mi
11:00 pm70 °FPassing clouds.No wind88%30.04 "HgN/A
10:30 pm70 °FPassing clouds.2 mph88%30.04 "HgN/A
10:00 pm70 °FPassing clouds.2 mph88%30.04 "HgN/A
9:30 pm72 °FClear.2 mph83%30.04 "Hg10 mi
9:00 pm73 °FClear.5 mph78%30.04 "Hg10 mi
8:30 pm75 °FClear.6 mph74%30.01 "Hg10 mi
8:00 pm75 °FPartly cloudy.3 mph78%30.01 "HgN/A
7:30 pm75 °FClear.3 mph74%30.01 "Hg10 mi
7:00 pm75 °FPassing clouds.6 mph78%30.01 "HgN/A
6:30 pm77 °FClear.7 mph69%29.98 "Hg10 mi
6:00 pm77 °FPassing clouds.10 mph74%29.98 "HgN/A
5:30 pm77 °FSunny.9 mph74%29.98 "Hg10 mi
5:00 pm77 °FScattered clouds.13 mph74%29.98 "HgN/A
4:30 pm79 °FPassing clouds.15 mph70%29.98 "HgN/A
4:00 pm79 °FBroken clouds.15 mph70%29.98 "HgN/A
3:30 pm79 °FPassing clouds.13 mph70%29.95 "HgN/A
3:00 pm79 °FBroken clouds.14 mph65%29.98 "HgN/A
2:30 pm77 °FOvercast.10 mph74%29.98 "HgN/A
2:00 pm79 °FPartly sunny.20 mph65%29.98 "HgN/A
1:30 pm79 °FBroken clouds.15 mph70%29.98 "HgN/A
1:00 pm79 °FPartly sunny.7 mph74%29.98 "HgN/A
12:30 pm77 °FLight rain. Mostly cloudy.14 mph74%30.01 "HgN/A
12:00 pm79 °FPartly sunny.18 mph65%30.01 "HgN/A
11:30 am81 °FScattered clouds.17 mph62%30.04 "HgN/A
11:00 am82 °FPassing clouds.17 mph58%30.04 "HgN/A
10:30 am81 °FPassing clouds.16 mph62%30.04 "HgN/A
10:00 am79 °FBroken clouds.16 mph65%30.04 "HgN/A
Weather by CustomWeather, © 2017

See weather overviewHow to use our weather pages